Year,Month,Day,Hour,Minute,Value (Times are PST for temperature in C)
2021,04,22,00,00,7.90
2021,04,22,00,01,7.90
2021,04,22,00,02,7.90
2021,04,22,00,03,7.90
2021,04,22,00,04,7.90
2021,04,22,00,05,7.90
2021,04,22,00,06,7.90
2021,04,22,00,07,7.90
2021,04,22,00,08,7.90
2021,04,22,00,09,7.90
2021,04,22,00,10,7.90
2021,04,22,00,11,7.90
2021,04,22,00,12,7.90
2021,04,22,00,13,7.80
2021,04,22,00,14,7.80
2021,04,22,00,15,7.80
2021,04,22,00,16,7.80
2021,04,22,00,17,7.80
2021,04,22,00,18,7.80
2021,04,22,00,19,7.80
2021,04,22,00,20,7.70
2021,04,22,00,21,7.70
2021,04,22,00,22,7.70
2021,04,22,00,23,7.70
2021,04,22,00,24,7.70
2021,04,22,00,25,7.70
2021,04,22,00,26,7.60
2021,04,22,00,27,7.60
2021,04,22,00,28,7.60
2021,04,22,00,29,7.60
2021,04,22,00,30,7.60
2021,04,22,00,31,7.60
2021,04,22,00,32,7.60
2021,04,22,00,33,7.60
2021,04,22,00,34,7.60
2021,04,22,00,35,7.60
2021,04,22,00,36,7.70
2021,04,22,00,37,7.70
2021,04,22,00,38,7.70
2021,04,22,00,39,7.70
2021,04,22,00,40,7.70
2021,04,22,00,41,7.70
2021,04,22,00,42,7.70
2021,04,22,00,43,7.60
2021,04,22,00,44,7.60
2021,04,22,00,45,7.60
2021,04,22,00,46,7.60
2021,04,22,00,47,7.60
2021,04,22,00,48,7.50
2021,04,22,00,49,7.50
2021,04,22,00,50,7.50
2021,04,22,00,51,7.40
2021,04,22,00,52,7.40
2021,04,22,00,53,7.40
2021,04,22,00,54,7.40
2021,04,22,00,55,7.40
2021,04,22,00,56,7.40
2021,04,22,00,57,7.40
2021,04,22,00,58,7.40
2021,04,22,00,59,7.40
2021,04,22,01,00,7.30
2021,04,22,01,01,7.30
2021,04,22,01,02,7.40
2021,04,22,01,03,7.40
2021,04,22,01,04,7.40
2021,04,22,01,05,7.40
2021,04,22,01,06,7.30
2021,04,22,01,07,7.30
2021,04,22,01,08,7.30
2021,04,22,01,09,7.30
2021,04,22,01,10,7.20
2021,04,22,01,11,7.20
2021,04,22,01,12,7.20
2021,04,22,01,13,7.20
2021,04,22,01,14,7.20
2021,04,22,01,15,7.20
2021,04,22,01,16,7.20
2021,04,22,01,17,7.20
2021,04,22,01,18,7.20
2021,04,22,01,19,7.20
2021,04,22,01,20,7.20
2021,04,22,01,21,7.20
2021,04,22,01,22,7.20
2021,04,22,01,23,7.20
2021,04,22,01,24,7.10
2021,04,22,01,25,7.10
2021,04,22,01,26,7.10
2021,04,22,01,27,7.10
2021,04,22,01,28,7.10
2021,04,22,01,29,7.10
2021,04,22,01,30,7.10
2021,04,22,01,31,7.10
2021,04,22,01,32,7.10
2021,04,22,01,33,7.10
2021,04,22,01,34,7.10
2021,04,22,01,35,7.10
2021,04,22,01,36,7.10
2021,04,22,01,37,7.00
2021,04,22,01,38,7.00
2021,04,22,01,39,7.00
2021,04,22,01,40,7.00
2021,04,22,01,41,6.90
2021,04,22,01,42,7.00
2021,04,22,01,43,7.00
2021,04,22,01,44,6.90
2021,04,22,01,45,7.00
2021,04,22,01,46,7.00
2021,04,22,01,47,7.00
2021,04,22,01,48,6.90
2021,04,22,01,49,6.90
2021,04,22,01,50,6.90
2021,04,22,01,51,6.90
2021,04,22,01,52,7.00
2021,04,22,01,53,6.90
2021,04,22,01,54,7.00
2021,04,22,01,55,7.00
2021,04,22,01,56,7.00
2021,04,22,01,57,7.00
2021,04,22,01,58,7.00
2021,04,22,01,59,7.00
2021,04,22,02,00,7.00
2021,04,22,02,01,7.10
2021,04,22,02,02,7.10
2021,04,22,02,03,7.00
2021,04,22,02,04,7.00
2021,04,22,02,05,7.00
2021,04,22,02,06,7.00
2021,04,22,02,07,7.00
2021,04,22,02,08,7.00
2021,04,22,02,09,6.90
2021,04,22,02,10,6.90
2021,04,22,02,11,6.90
2021,04,22,02,12,6.90
2021,04,22,02,13,7.00
2021,04,22,02,14,7.00
2021,04,22,02,15,7.10
2021,04,22,02,16,7.00
2021,04,22,02,17,7.00
2021,04,22,02,18,7.00
2021,04,22,02,19,6.90
2021,04,22,02,20,6.90
2021,04,22,02,21,6.90
2021,04,22,02,22,6.90
2021,04,22,02,23,6.90
2021,04,22,02,24,6.90
2021,04,22,02,25,6.90
2021,04,22,02,26,6.90
2021,04,22,02,27,6.90
2021,04,22,02,28,6.90
2021,04,22,02,29,6.90
2021,04,22,02,30,6.90
2021,04,22,02,31,6.80
2021,04,22,02,32,6.80
2021,04,22,02,33,6.80
2021,04,22,02,34,6.80
2021,04,22,02,35,6.80
2021,04,22,02,36,6.80
2021,04,22,02,37,6.80
2021,04,22,02,38,6.80
2021,04,22,02,39,6.80
2021,04,22,02,40,6.80
2021,04,22,02,41,6.70
2021,04,22,02,42,6.70
2021,04,22,02,43,6.70
2021,04,22,02,44,6.70
2021,04,22,02,45,6.70
2021,04,22,02,46,6.60
2021,04,22,02,47,6.60
2021,04,22,02,48,6.60
2021,04,22,02,49,6.60
2021,04,22,02,50,6.50
2021,04,22,02,51,6.50
2021,04,22,02,52,6.50
2021,04,22,02,53,6.50
2021,04,22,02,54,6.50
2021,04,22,02,55,6.50
2021,04,22,02,56,6.50
2021,04,22,02,57,6.40
2021,04,22,02,58,6.40
2021,04,22,02,59,6.40
2021,04,22,03,00,6.40
2021,04,22,03,01,6.40
2021,04,22,03,02,6.40
2021,04,22,03,03,6.30
2021,04,22,03,04,6.30
2021,04,22,03,05,6.30
2021,04,22,03,06,6.40
2021,04,22,03,07,6.40
2021,04,22,03,08,6.40
2021,04,22,03,09,6.40
2021,04,22,03,10,6.40
2021,04,22,03,11,6.40
2021,04,22,03,12,6.50
2021,04,22,03,13,6.50
2021,04,22,03,14,6.50
2021,04,22,03,15,6.50
2021,04,22,03,16,6.50
2021,04,22,03,17,6.50
2021,04,22,03,18,6.50
2021,04,22,03,19,6.50
2021,04,22,03,20,6.50
2021,04,22,03,21,6.60
2021,04,22,03,22,6.60
2021,04,22,03,23,6.60
2021,04,22,03,24,6.60
2021,04,22,03,25,6.70
2021,04,22,03,26,6.70
2021,04,22,03,27,6.70
2021,04,22,03,28,6.70
2021,04,22,03,29,6.70
2021,04,22,03,30,6.70
2021,04,22,03,31,6.80
2021,04,22,03,32,6.80
2021,04,22,03,33,6.80
2021,04,22,03,34,6.80
2021,04,22,03,35,6.90
2021,04,22,03,36,6.90
2021,04,22,03,37,6.90
2021,04,22,03,38,6.90
2021,04,22,03,39,6.90
2021,04,22,03,40,6.90
2021,04,22,03,41,6.90
2021,04,22,03,42,6.90
2021,04,22,03,43,6.90
2021,04,22,03,44,6.90
2021,04,22,03,45,6.90
2021,04,22,03,46,6.90
2021,04,22,03,47,6.90
2021,04,22,03,48,6.90
2021,04,22,03,49,6.90
2021,04,22,03,50,6.90
2021,04,22,03,51,6.90
2021,04,22,03,52,6.90
2021,04,22,03,53,6.90
2021,04,22,03,54,6.90
2021,04,22,03,55,6.90
2021,04,22,03,56,6.80
2021,04,22,03,57,6.80
2021,04,22,03,58,6.90
2021,04,22,03,59,6.90
2021,04,22,04,00,6.90
2021,04,22,04,01,6.90
2021,04,22,04,02,6.90
2021,04,22,04,03,6.90
2021,04,22,04,04,6.90
2021,04,22,04,05,6.90
2021,04,22,04,06,6.90
2021,04,22,04,07,6.90
2021,04,22,04,08,6.90
2021,04,22,04,09,6.80
2021,04,22,04,10,6.80
2021,04,22,04,11,6.70
2021,04,22,04,12,6.70
2021,04,22,04,13,6.70
2021,04,22,04,14,6.60
2021,04,22,04,15,6.60
2021,04,22,04,16,6.60
2021,04,22,04,17,6.60
2021,04,22,04,18,6.60
2021,04,22,04,19,6.50
2021,04,22,04,20,6.50
2021,04,22,04,21,6.40
2021,04,22,04,22,6.40
2021,04,22,04,23,6.40
2021,04,22,04,24,6.40
2021,04,22,04,25,6.30
2021,04,22,04,26,6.40
2021,04,22,04,27,6.40
2021,04,22,04,28,6.40
2021,04,22,04,29,6.40
2021,04,22,04,30,6.40
2021,04,22,04,31,6.50
2021,04,22,04,32,6.50
2021,04,22,04,33,6.60
2021,04,22,04,34,6.60
2021,04,22,04,35,6.60
2021,04,22,04,36,6.60
2021,04,22,04,37,6.70
2021,04,22,04,38,6.70
2021,04,22,04,39,6.60
2021,04,22,04,40,6.60
2021,04,22,04,41,6.60
2021,04,22,04,42,6.60
2021,04,22,04,43,6.60
2021,04,22,04,44,6.60
2021,04,22,04,45,6.60
2021,04,22,04,46,6.60
2021,04,22,04,47,6.60
2021,04,22,04,48,6.60
2021,04,22,04,49,6.50
2021,04,22,04,50,6.50
2021,04,22,04,51,6.50
2021,04,22,04,52,6.50
2021,04,22,04,53,6.40
2021,04,22,04,54,6.40
2021,04,22,04,55,6.40
2021,04,22,04,56,6.30
2021,04,22,04,57,6.30
2021,04,22,04,58,6.30
2021,04,22,04,59,6.30
2021,04,22,05,00,6.30
2021,04,22,05,01,6.30
2021,04,22,05,02,6.30
2021,04,22,05,03,6.20
2021,04,22,05,04,6.30
2021,04,22,05,05,6.30
2021,04,22,05,06,6.30
2021,04,22,05,07,6.40
2021,04,22,05,08,6.40
2021,04,22,05,09,6.50
2021,04,22,05,10,6.50
2021,04,22,05,11,6.50
2021,04,22,05,12,6.50
2021,04,22,05,13,6.60
2021,04,22,05,14,6.60
2021,04,22,05,15,6.60
2021,04,22,05,16,6.70
2021,04,22,05,17,6.70
2021,04,22,05,18,6.70
2021,04,22,05,19,6.80
2021,04,22,05,20,6.80
2021,04,22,05,21,6.80
2021,04,22,05,22,6.80
2021,04,22,05,23,6.80
2021,04,22,05,24,6.80
2021,04,22,05,25,6.80
2021,04,22,05,26,6.80
2021,04,22,05,27,6.80
2021,04,22,05,28,6.80
2021,04,22,05,29,6.80
2021,04,22,05,30,6.80
2021,04,22,05,31,6.80
2021,04,22,05,32,6.70
2021,04,22,05,33,6.70
2021,04,22,05,34,6.70
2021,04,22,05,35,6.80
2021,04,22,05,36,6.80
2021,04,22,05,37,6.80
2021,04,22,05,38,6.80
2021,04,22,05,39,6.80
2021,04,22,05,40,6.70
2021,04,22,05,41,6.70
2021,04,22,05,42,6.70
2021,04,22,05,43,6.70
2021,04,22,05,44,6.70
2021,04,22,05,45,6.70
2021,04,22,05,46,6.70
2021,04,22,05,47,6.70
2021,04,22,05,48,6.70
2021,04,22,05,49,6.70
2021,04,22,05,50,6.70
2021,04,22,05,51,6.70
2021,04,22,05,52,6.70
2021,04,22,05,53,6.60
2021,04,22,05,54,6.60
2021,04,22,05,55,6.60
2021,04,22,05,56,6.60
2021,04,22,05,57,6.60
2021,04,22,05,58,6.60
2021,04,22,05,59,6.60
2021,04,22,06,00,6.60
2021,04,22,06,01,6.60
2021,04,22,06,02,6.70
2021,04,22,06,03,6.70
2021,04,22,06,04,6.70
2021,04,22,06,05,6.70
2021,04,22,06,06,6.70
2021,04,22,06,07,6.70
2021,04,22,06,08,6.70
2021,04,22,06,09,6.70
2021,04,22,06,10,6.80
2021,04,22,06,11,6.80
2021,04,22,06,12,6.80
2021,04,22,06,13,6.90
2021,04,22,06,14,6.90
2021,04,22,06,15,6.90
2021,04,22,06,16,7.00
2021,04,22,06,17,7.10
2021,04,22,06,18,7.10
2021,04,22,06,19,7.10
2021,04,22,06,20,7.10
2021,04,22,06,21,7.10
2021,04,22,06,22,7.10
2021,04,22,06,23,7.10
2021,04,22,06,24,7.00
2021,04,22,06,25,7.00
2021,04,22,06,26,6.90
2021,04,22,06,27,7.00
2021,04,22,06,28,6.90
2021,04,22,06,29,6.90
2021,04,22,06,30,6.90
2021,04,22,06,31,6.90
2021,04,22,06,32,6.90
2021,04,22,06,33,6.90
2021,04,22,06,34,6.90
2021,04,22,06,35,6.90
2021,04,22,06,36,6.90
2021,04,22,06,37,6.90
2021,04,22,06,38,6.90
2021,04,22,06,39,6.90
2021,04,22,06,40,6.90
2021,04,22,06,41,6.90
2021,04,22,06,42,7.00
2021,04,22,06,43,7.00
2021,04,22,06,44,7.00
2021,04,22,06,45,7.10
2021,04,22,06,46,7.10
2021,04,22,06,47,7.20
2021,04,22,06,48,7.30
2021,04,22,06,49,7.30
2021,04,22,06,50,7.40
2021,04,22,06,51,7.50
2021,04,22,06,52,7.60
2021,04,22,06,53,7.60
2021,04,22,06,54,7.70
2021,04,22,06,55,7.70
2021,04,22,06,56,7.80
2021,04,22,06,57,7.80
2021,04,22,06,58,7.90
2021,04,22,06,59,7.90
2021,04,22,07,00,8.00
2021,04,22,07,01,8.10
2021,04,22,07,02,8.20
2021,04,22,07,03,8.20
2021,04,22,07,04,8.30
2021,04,22,07,05,8.30
2021,04,22,07,06,8.40
2021,04,22,07,07,8.40
2021,04,22,07,08,8.50
2021,04,22,07,09,8.50
2021,04,22,07,10,8.60
2021,04,22,07,11,8.60
2021,04,22,07,12,8.60
2021,04,22,07,13,8.60
2021,04,22,07,14,8.60
2021,04,22,07,15,8.60
2021,04,22,07,16,8.70
2021,04,22,07,17,8.70
2021,04,22,07,18,8.70
2021,04,22,07,19,8.80
2021,04,22,07,20,8.80
2021,04,22,07,21,8.80
2021,04,22,07,22,8.90
2021,04,22,07,23,8.90
2021,04,22,07,24,9.00
2021,04,22,07,25,9.00
2021,04,22,07,26,9.10
2021,04,22,07,27,9.10
2021,04,22,07,28,9.20
2021,04,22,07,29,9.20
2021,04,22,07,30,9.20
2021,04,22,07,31,9.30
2021,04,22,07,32,9.30
2021,04,22,07,33,9.30
2021,04,22,07,34,9.40
2021,04,22,07,35,9.40
2021,04,22,07,36,9.50
2021,04,22,07,37,9.50
2021,04,22,07,38,9.60
2021,04,22,07,39,9.60
2021,04,22,07,40,9.70
2021,04,22,07,41,9.70
2021,04,22,07,42,9.70
2021,04,22,07,43,9.70
2021,04,22,07,44,9.80
2021,04,22,07,45,9.80
2021,04,22,07,46,9.80
2021,04,22,07,47,9.90
2021,04,22,07,48,9.90
2021,04,22,07,49,10.00
2021,04,22,07,50,10.00
2021,04,22,07,51,10.10
2021,04,22,07,52,10.20
2021,04,22,07,53,10.20
2021,04,22,07,54,10.30
2021,04,22,07,55,10.30
2021,04,22,07,56,10.40
2021,04,22,07,57,10.40
2021,04,22,07,58,10.50
2021,04,22,07,59,10.50
2021,04,22,08,00,10.60
2021,04,22,08,01,10.60
2021,04,22,08,02,10.60
2021,04,22,08,03,10.70
2021,04,22,08,04,10.70
2021,04,22,08,05,10.70
2021,04,22,08,06,10.70
2021,04,22,08,07,10.80
2021,04,22,08,08,10.80
2021,04,22,08,09,10.80
2021,04,22,08,10,10.80
2021,04,22,08,11,10.90
2021,04,22,08,12,10.90
2021,04,22,08,13,10.90
2021,04,22,08,14,11.00
2021,04,22,08,15,11.00
2021,04,22,08,16,11.10
2021,04,22,08,17,11.10
2021,04,22,08,18,11.10
2021,04,22,08,19,11.10
2021,04,22,08,20,11.10
2021,04,22,08,21,11.20
2021,04,22,08,22,11.20
2021,04,22,08,23,11.20
2021,04,22,08,24,11.30
2021,04,22,08,25,11.20
2021,04,22,08,26,11.30
2021,04,22,08,27,11.30
2021,04,22,08,28,11.30
2021,04,22,08,29,11.30
2021,04,22,08,30,11.30
2021,04,22,08,31,11.30
2021,04,22,08,32,11.30
2021,04,22,08,33,11.30
2021,04,22,08,34,11.40
2021,04,22,08,35,11.40
2021,04,22,08,36,11.40
2021,04,22,08,37,11.50
2021,04,22,08,38,11.50
2021,04,22,08,39,11.50
2021,04,22,08,40,11.50
2021,04,22,08,41,11.40
2021,04,22,08,42,11.40
2021,04,22,08,43,11.50
2021,04,22,08,44,11.50
2021,04,22,08,45,11.60
2021,04,22,08,46,11.60
2021,04,22,08,47,11.50
2021,04,22,08,48,11.50
2021,04,22,08,49,11.50
2021,04,22,08,50,11.60
2021,04,22,08,51,11.60
2021,04,22,08,52,11.60
2021,04,22,08,53,11.60
2021,04,22,08,54,11.60
2021,04,22,08,55,11.60
2021,04,22,08,56,11.60
2021,04,22,08,57,11.70
2021,04,22,08,58,11.70
2021,04,22,08,59,11.80
2021,04,22,09,00,11.80
2021,04,22,09,01,11.90
2021,04,22,09,02,11.90
2021,04,22,09,03,11.90
2021,04,22,09,04,11.90
2021,04,22,09,05,11.90
2021,04,22,09,06,12.00
2021,04,22,09,07,12.00
2021,04,22,09,08,11.90
2021,04,22,09,09,12.00
2021,04,22,09,10,11.90
2021,04,22,09,11,11.90
2021,04,22,09,12,11.90
2021,04,22,09,13,11.90
2021,04,22,09,14,11.90
2021,04,22,09,15,11.90
2021,04,22,09,16,12.00
2021,04,22,09,17,12.00
2021,04,22,09,18,12.00
2021,04,22,09,19,12.10
2021,04,22,09,20,12.10
2021,04,22,09,21,12.10
2021,04,22,09,22,12.20
2021,04,22,09,23,12.10
2021,04,22,09,24,12.10
2021,04,22,09,25,12.10
2021,04,22,09,26,12.10
2021,04,22,09,27,12.10
2021,04,22,09,28,12.10
2021,04,22,09,29,12.10
2021,04,22,09,30,12.10
2021,04,22,09,31,12.10
2021,04,22,09,32,12.20
2021,04,22,09,33,12.20
2021,04,22,09,34,12.20
2021,04,22,09,35,12.20
2021,04,22,09,36,12.20
2021,04,22,09,37,12.30
2021,04,22,09,38,12.30
2021,04,22,09,39,12.30
2021,04,22,09,40,12.30
2021,04,22,09,41,12.30
2021,04,22,09,42,12.30
2021,04,22,09,43,12.30
2021,04,22,09,44,12.20
2021,04,22,09,45,12.20
2021,04,22,09,46,12.20
2021,04,22,09,47,12.10
2021,04,22,09,48,12.10
2021,04,22,09,49,12.10
2021,04,22,09,50,12.10
2021,04,22,09,51,12.10
2021,04,22,09,52,12.10
2021,04,22,09,53,12.10
2021,04,22,09,54,12.20
2021,04,22,09,55,12.20
2021,04,22,09,56,12.20
2021,04,22,09,57,12.10
2021,04,22,09,58,12.10
2021,04,22,09,59,12.10
2021,04,22,10,00,12.10
2021,04,22,10,01,12.00
2021,04,22,10,02,12.10
2021,04,22,10,03,12.10
2021,04,22,10,04,12.20
2021,04,22,10,05,12.30
2021,04,22,10,06,12.30
2021,04,22,10,07,12.30
2021,04,22,10,08,12.30
2021,04,22,10,09,12.30
2021,04,22,10,10,12.30
2021,04,22,10,11,12.30
2021,04,22,10,12,12.30
2021,04,22,10,13,12.30
2021,04,22,10,14,12.30
2021,04,22,10,15,12.30
2021,04,22,10,16,12.30
2021,04,22,10,17,12.30
2021,04,22,10,18,12.40
2021,04,22,10,19,12.50
2021,04,22,10,20,12.60
2021,04,22,10,21,12.70
2021,04,22,10,22,12.70
2021,04,22,10,23,12.60
2021,04,22,10,24,12.60
2021,04,22,10,25,12.60
2021,04,22,10,26,12.60
2021,04,22,10,27,12.70
2021,04,22,10,28,12.70
2021,04,22,10,29,12.60
2021,04,22,10,30,12.60
2021,04,22,10,31,12.60
2021,04,22,10,32,12.50
2021,04,22,10,33,12.40
2021,04,22,10,34,12.40
2021,04,22,10,35,12.40
2021,04,22,10,36,12.40
2021,04,22,10,37,12.40
2021,04,22,10,38,12.50
2021,04,22,10,39,12.60
2021,04,22,10,40,12.70
2021,04,22,10,41,12.80
2021,04,22,10,42,12.90
2021,04,22,10,43,12.80
2021,04,22,10,44,12.80
2021,04,22,10,45,12.80
2021,04,22,10,46,12.80
2021,04,22,10,47,12.70
2021,04,22,10,48,12.70
2021,04,22,10,49,12.70
2021,04,22,10,50,12.70
2021,04,22,10,51,12.70
2021,04,22,10,52,12.70
2021,04,22,10,53,12.80
2021,04,22,10,54,12.90
2021,04,22,10,55,12.90
2021,04,22,10,56,13.00
2021,04,22,10,57,13.10
2021,04,22,10,58,13.00
2021,04,22,10,59,13.10
2021,04,22,11,00,13.10
2021,04,22,11,01,13.10
2021,04,22,11,02,13.10
2021,04,22,11,03,13.20
2021,04,22,11,04,13.30
2021,04,22,11,05,13.30
2021,04,22,11,06,13.30
2021,04,22,11,07,13.20
2021,04,22,11,08,13.10
2021,04,22,11,09,13.00
2021,04,22,11,10,13.00
2021,04,22,11,11,13.00
2021,04,22,11,12,13.10
2021,04,22,11,13,13.10
2021,04,22,11,14,13.10
2021,04,22,11,15,13.10
2021,04,22,11,16,13.00
2021,04,22,11,17,13.00
2021,04,22,11,18,13.00
2021,04,22,11,19,13.00
2021,04,22,11,20,13.00
2021,04,22,11,21,13.00
2021,04,22,11,22,13.10
2021,04,22,11,23,13.30
2021,04,22,11,24,13.30
2021,04,22,11,25,13.30
2021,04,22,11,26,13.40
2021,04,22,11,27,13.30
2021,04,22,11,28,13.20
2021,04,22,11,29,13.20
2021,04,22,11,30,13.20
2021,04,22,11,31,13.20
2021,04,22,11,32,13.20
2021,04,22,11,33,13.30
2021,04,22,11,34,13.30
2021,04,22,11,35,13.40
2021,04,22,11,36,13.40
2021,04,22,11,37,13.40
2021,04,22,11,38,13.40
2021,04,22,11,39,13.40
2021,04,22,11,40,13.40
2021,04,22,11,41,13.40
2021,04,22,11,42,13.40
2021,04,22,11,43,13.40
2021,04,22,11,44,13.60
2021,04,22,11,45,13.70
2021,04,22,11,46,13.70
2021,04,22,11,47,13.60
2021,04,22,11,48,13.50
2021,04,22,11,49,13.40
2021,04,22,11,50,13.40
2021,04,22,11,51,13.40
2021,04,22,11,52,13.60
2021,04,22,11,53,13.70
2021,04,22,11,54,13.70
2021,04,22,11,55,13.70
2021,04,22,11,56,13.80
2021,04,22,11,57,13.90
2021,04,22,11,58,13.90
2021,04,22,11,59,13.90
2021,04,22,12,00,13.90
2021,04,22,12,01,13.80
2021,04,22,12,02,13.80
2021,04,22,12,03,13.80
2021,04,22,12,04,13.80
2021,04,22,12,05,13.90
2021,04,22,12,06,14.00
2021,04,22,12,07,14.10
2021,04,22,12,08,14.30
2021,04,22,12,09,14.30
2021,04,22,12,10,14.20
2021,04,22,12,11,14.20
2021,04,22,12,12,14.10
2021,04,22,12,13,14.00
2021,04,22,12,14,14.00
2021,04,22,12,15,14.00
2021,04,22,12,16,13.90
2021,04,22,12,17,13.90
2021,04,22,12,18,14.10
2021,04,22,12,19,14.10
2021,04,22,12,20,14.20
2021,04,22,12,21,14.20
2021,04,22,12,22,14.20
2021,04,22,12,23,14.20
2021,04,22,12,24,14.20
2021,04,22,12,25,14.20
2021,04,22,12,26,14.20
2021,04,22,12,27,14.30
2021,04,22,12,28,14.30
2021,04,22,12,29,14.30
2021,04,22,12,30,14.20
2021,04,22,12,31,14.20
2021,04,22,12,32,14.20
2021,04,22,12,33,14.20
2021,04,22,12,34,14.30
2021,04,22,12,35,14.40
2021,04,22,12,36,14.50
2021,04,22,12,37,14.60
2021,04,22,12,38,14.70
2021,04,22,12,39,14.70
2021,04,22,12,40,14.70
2021,04,22,12,41,14.70
2021,04,22,12,42,14.80
2021,04,22,12,43,14.70
2021,04,22,12,44,14.80
2021,04,22,12,45,14.90
2021,04,22,12,46,14.90
2021,04,22,12,47,15.00
2021,04,22,12,48,15.00
2021,04,22,12,49,14.90
2021,04,22,12,50,14.90
2021,04,22,12,51,14.90
2021,04,22,12,52,14.90
2021,04,22,12,53,14.90
2021,04,22,12,54,14.90
2021,04,22,12,55,14.90
2021,04,22,12,56,14.90
2021,04,22,12,57,14.90
2021,04,22,12,58,14.90
2021,04,22,12,59,15.00
2021,04,22,13,00,15.10
2021,04,22,13,01,15.20
2021,04,22,13,02,15.30
2021,04,22,13,03,15.30
2021,04,22,13,04,15.30
2021,04,22,13,05,15.30
2021,04,22,13,06,15.30
2021,04,22,13,07,15.30
2021,04,22,13,08,15.30
2021,04,22,13,09,15.40
2021,04,22,13,10,15.30
2021,04,22,13,11,15.20
2021,04,22,13,12,15.20
2021,04,22,13,13,15.20
2021,04,22,13,14,15.30
2021,04,22,13,15,15.40
2021,04,22,13,16,15.50
2021,04,22,13,17,15.50
2021,04,22,13,18,15.50
2021,04,22,13,19,15.50
2021,04,22,13,20,15.40
2021,04,22,13,21,15.20
2021,04,22,13,22,15.10
2021,04,22,13,23,15.20
2021,04,22,13,24,15.20
2021,04,22,13,25,15.20
2021,04,22,13,26,15.20
2021,04,22,13,27,15.10
2021,04,22,13,28,15.10
2021,04,22,13,29,15.20
2021,04,22,13,30,15.30
2021,04,22,13,31,15.50
2021,04,22,13,32,15.70
2021,04,22,13,33,15.80
2021,04,22,13,34,15.90
2021,04,22,13,35,16.00
2021,04,22,13,36,16.10
2021,04,22,13,37,16.10
2021,04,22,13,38,16.10
2021,04,22,13,39,16.10
2021,04,22,13,40,16.00
2021,04,22,13,41,15.90
2021,04,22,13,42,15.80
2021,04,22,13,43,15.70
2021,04,22,13,44,15.70
2021,04,22,13,45,15.70
2021,04,22,13,46,15.80
2021,04,22,13,47,15.90
2021,04,22,13,48,16.00
2021,04,22,13,49,16.10
2021,04,22,13,50,16.10
2021,04,22,13,51,16.10
2021,04,22,13,52,16.10
2021,04,22,13,53,16.10
2021,04,22,13,54,16.00
2021,04,22,13,55,16.00
2021,04,22,13,56,16.00
2021,04,22,13,57,16.10
2021,04,22,13,58,16.10
2021,04,22,13,59,16.30
2021,04,22,14,00,16.30
2021,04,22,14,01,16.40
2021,04,22,14,02,16.50
2021,04,22,14,03,16.50
2021,04,22,14,04,16.50
2021,04,22,14,05,16.60
2021,04,22,14,06,16.60
2021,04,22,14,07,16.60
2021,04,22,14,08,16.60
2021,04,22,14,09,16.50
2021,04,22,14,10,16.50
2021,04,22,14,11,16.50
2021,04,22,14,12,16.50
2021,04,22,14,13,16.50
2021,04,22,14,14,16.50
2021,04,22,14,15,16.50
2021,04,22,14,16,16.60
2021,04,22,14,17,16.60
2021,04,22,14,18,16.50
2021,04,22,14,19,16.50
2021,04,22,14,20,16.40
2021,04,22,14,21,16.40
2021,04,22,14,22,16.30
2021,04,22,14,23,16.30
2021,04,22,14,24,16.30
2021,04,22,14,25,16.30
2021,04,22,14,26,16.40
2021,04,22,14,27,16.40
2021,04,22,14,28,16.40
2021,04,22,14,29,16.50
2021,04,22,14,30,16.60
2021,04,22,14,31,16.60
2021,04,22,14,32,16.60
2021,04,22,14,33,16.60
2021,04,22,14,34,16.60
2021,04,22,14,35,16.60
2021,04,22,14,36,16.60
2021,04,22,14,37,16.70
2021,04,22,14,38,16.80
2021,04,22,14,39,16.80
2021,04,22,14,40,16.90
2021,04,22,14,41,17.00
2021,04,22,14,42,17.10
2021,04,22,14,43,17.00
2021,04,22,14,44,17.10
2021,04,22,14,45,17.20
2021,04,22,14,46,17.20
2021,04,22,14,47,17.30
2021,04,22,14,48,17.40
2021,04,22,14,49,17.50
2021,04,22,14,50,17.50
2021,04,22,14,51,17.50
2021,04,22,14,52,17.50
2021,04,22,14,53,17.50
2021,04,22,14,54,17.50
2021,04,22,14,55,17.50
2021,04,22,14,56,17.50
2021,04,22,14,57,17.40
2021,04,22,14,58,17.30
2021,04,22,14,59,17.20
2021,04,22,15,00,17.20
2021,04,22,15,01,17.20
2021,04,22,15,02,17.20
2021,04,22,15,03,17.20
2021,04,22,15,04,17.30
2021,04,22,15,05,17.30
2021,04,22,15,06,17.40
2021,04,22,15,07,17.50
2021,04,22,15,08,17.50
2021,04,22,15,09,17.50
2021,04,22,15,10,17.50
2021,04,22,15,11,17.60
2021,04,22,15,12,17.50
2021,04,22,15,13,17.60
2021,04,22,15,14,17.60
2021,04,22,15,15,17.60
2021,04,22,15,16,17.70
2021,04,22,15,17,17.80
2021,04,22,15,18,17.80
2021,04,22,15,19,17.90
2021,04,22,15,20,18.00
2021,04,22,15,21,18.00
2021,04,22,15,22,18.00
2021,04,22,15,23,18.00
2021,04,22,15,24,17.90
2021,04,22,15,25,17.90
2021,04,22,15,26,17.90
2021,04,22,15,27,17.80
2021,04,22,15,28,17.70
2021,04,22,15,29,17.70
2021,04,22,15,30,17.80
2021,04,22,15,31,17.80
2021,04,22,15,32,17.90
2021,04,22,15,33,17.90
2021,04,22,15,34,18.00
2021,04,22,15,35,18.00
2021,04,22,15,36,17.90
2021,04,22,15,37,17.90
2021,04,22,15,38,17.80
2021,04,22,15,39,17.80
2021,04,22,15,40,17.90
2021,04,22,15,41,17.90
2021,04,22,15,42,18.00
2021,04,22,15,43,17.90
2021,04,22,15,44,17.80
2021,04,22,15,45,17.80
2021,04,22,15,46,17.80
2021,04,22,15,47,17.80
2021,04,22,15,48,17.90
2021,04,22,15,49,18.00
2021,04,22,15,50,18.00
2021,04,22,15,51,18.10
2021,04,22,15,52,18.20
2021,04,22,15,53,18.40
2021,04,22,15,54,18.50
2021,04,22,15,55,18.60
2021,04,22,15,56,18.60
2021,04,22,15,57,18.70
2021,04,22,15,58,18.60
2021,04,22,15,59,18.50
2021,04,22,16,00,18.60
2021,04,22,16,01,18.60
2021,04,22,16,02,18.70
2021,04,22,16,03,18.70
2021,04,22,16,04,18.70
2021,04,22,16,05,18.70
2021,04,22,16,06,18.70
2021,04,22,16,07,18.80
2021,04,22,16,08,18.90
2021,04,22,16,09,18.90
2021,04,22,16,10,18.90
2021,04,22,16,11,18.90
2021,04,22,16,12,18.90
2021,04,22,16,13,18.90
2021,04,22,16,14,18.90
2021,04,22,16,15,19.00
2021,04,22,16,16,18.90
2021,04,22,16,17,18.80
2021,04,22,16,18,18.80
2021,04,22,16,19,18.90
2021,04,22,16,20,18.80
2021,04,22,16,21,18.80
2021,04,22,16,22,18.70
2021,04,22,16,23,18.70
2021,04,22,16,24,18.80
2021,04,22,16,25,18.90
2021,04,22,16,26,19.00
2021,04,22,16,27,19.00
2021,04,22,16,28,19.10
2021,04,22,16,29,19.10
2021,04,22,16,30,19.20
2021,04,22,16,31,19.30
2021,04,22,16,32,19.40
2021,04,22,16,33,19.60
2021,04,22,16,34,19.70
2021,04,22,16,35,19.80
2021,04,22,16,36,19.90
2021,04,22,16,37,19.90
2021,04,22,16,38,20.00
2021,04,22,16,39,20.00
2021,04,22,16,40,20.00
2021,04,22,16,41,19.90
2021,04,22,16,42,19.90
2021,04,22,16,43,19.90
2021,04,22,16,44,19.90
2021,04,22,16,45,19.90
2021,04,22,16,46,19.80
2021,04,22,16,47,19.80
2021,04,22,16,48,19.90
2021,04,22,16,49,19.90
2021,04,22,16,50,20.00
2021,04,22,16,51,20.10
2021,04,22,16,52,20.10
2021,04,22,16,53,20.30
2021,04,22,16,54,20.30
2021,04,22,16,55,20.30
2021,04,22,16,56,20.20
2021,04,22,16,57,20.10
2021,04,22,16,58,20.00
2021,04,22,16,59,19.90
2021,04,22,17,00,19.80
2021,04,22,17,01,19.70
2021,04,22,17,02,19.60
2021,04,22,17,03,19.60
2021,04,22,17,04,19.60
2021,04,22,17,05,19.60
2021,04,22,17,06,19.60
2021,04,22,17,07,19.70
2021,04,22,17,08,19.70
2021,04,22,17,09,19.80
2021,04,22,17,10,19.80
2021,04,22,17,11,19.80
2021,04,22,17,12,19.70
2021,04,22,17,13,19.70
2021,04,22,17,14,19.80
2021,04,22,17,15,19.80
2021,04,22,17,16,19.90
2021,04,22,17,17,19.90
2021,04,22,17,18,20.00
2021,04,22,17,19,20.10
2021,04,22,17,20,20.10
2021,04,22,17,21,20.10
2021,04,22,17,22,20.00
2021,04,22,17,23,20.00
2021,04,22,17,24,19.90
2021,04,22,17,25,19.90
2021,04,22,17,26,19.90
2021,04,22,17,27,19.90
2021,04,22,17,28,19.90
2021,04,22,17,29,19.90
2021,04,22,17,30,20.00
2021,04,22,17,31,20.00
2021,04,22,17,32,20.00
2021,04,22,17,33,20.00
2021,04,22,17,34,20.10
2021,04,22,17,35,20.10
2021,04,22,17,36,20.10
2021,04,22,17,37,20.00
2021,04,22,17,38,20.00
2021,04,22,17,39,19.90